Home   Weather   Arequipa   Past weeks

Flag for Peru Past Weather in Arequipa, Arequipa, Peru — Yesterday and Last 2 Weeks

Now
61 °F

Partly sunny.


Feels Like: 61 °F
Forecast: N/A
Wind: 10 mph from West

Location: Arequipa Airport

Current Time: Dec 10, 2016 at 5:29:59 pm

Latest Report: Dec 10, 2016 at 5:00 pm


Visibility: N/A

Pressure: 30.30 "Hg (22.97 "Hg at 2345m altitude)

Humidity: 55%

Dew Point: 45 °F

Location of ArequipaLocation

Past Weather in Arequipa — Graph

°F

Arequipa Temperature Yesterday

Maximum temperature yesterday: 66 °F (at 1:00 pm)
Minimum temperature yesterday: 46 °F (at 5:00 am)
Average temperature yesterday: 56 °F

High & Low Weather Summary for the Past Weeks

 TemperatureHumidityPressure
High75 °F (Nov 29, 2:00 pm)100% (Nov 28, 1:00 am)30.36 "Hg (Nov 28, 1:00 am)
Low45 °F (Dec 10, 5:00 am)8% (Nov 27, 10:00 am)30.21 "Hg (Nov 29, 3:00 pm)
Average60 °F38%30.30 "Hg
* Reported Nov 25 4:00 pm — Dec 10 4:00 pm, Arequipa, Weather by CustomWeather, © 2016

Note: Actual official high and low records may vary slightly from our data, if they occured in-between our weather recording intervals... More about our weather records

Advertising

Arequipa Weather History for the Previous 24 Hours

Scroll right to see more
 ConditionsComfort  
Time TempWeatherWind HumidityBarometerVisibility
4:00 pm
Sat, Dec 10
63 °FPassing clouds.13 mph52%30.30 "HgN/A
3:00 pm63 °FPassing clouds.14 mph49%30.30 "HgN/A
2:00 pm64 °FSunny.15 mph40%30.30 "Hg10 mi
1:00 pm64 °FPassing clouds.13 mph43%30.27 "HgN/A
12:00 pm66 °FPassing clouds.10 mph37%30.33 "HgN/A
11:00 am63 °FPassing clouds.10 mph45%30.33 "HgN/A
10:00 am63 °FPassing clouds.8 mph45%30.33 "HgN/A
9:00 am57 °FPassing clouds.7 mph63%30.33 "HgN/A
8:00 am55 °FPassing clouds.7 mph59%30.33 "HgN/A
7:00 am54 °FSunny.No wind54%30.30 "Hg10 mi
6:00 am46 °FSunny.3 mph76%30.30 "Hg10 mi
5:00 am45 °FClear.2 mph76%30.27 "Hg10 mi
4:00 am46 °FClear.3 mph82%30.27 "Hg10 mi
3:00 am46 °FClear.3 mph71%30.27 "Hg10 mi
2:00 am50 °FClear.No wind67%30.27 "Hg10 mi
1:00 am52 °FClear.2 mph67%30.30 "Hg10 mi
12:00 am54 °FClear.3 mph63%30.33 "Hg10 mi
11:00 pm
Fri, Dec 9
54 °FClear.3 mph47%30.36 "Hg10 mi
10:00 pm54 °FClear.3 mph77%30.36 "Hg10 mi
9:00 pm54 °FClear.2 mph77%30.36 "Hg10 mi
8:00 pm54 °FClear.3 mph77%30.33 "Hg10 mi
7:00 pm54 °FClear.6 mph82%30.33 "Hg10 mi
6:00 pm57 °FSunny.8 mph72%30.30 "Hg10 mi
5:00 pm59 °FPassing clouds.12 mph68%30.27 "HgN/A
Weather by CustomWeather, © 2016

See weather overviewHow to use our weather pages